www.pogodaiklimat.ru

Погода и климат >> Архив погоды >> Россия >> Дагестан >> Бабаюрт


ПОГОДА в Бабаюрте

  • Прогноз погоды в Бабаюрте
  • Монитор погоды в Бабаюрте

АРХИВ ПОГОДЫ в Бабаюрте

Время (UTC), дата Ветер
(напр.,м/с)
 
Видим.   Явления Облачность Т
(С)
Тd
(С)
f
(%)
Тe
(С)
Тes
(С)
Комфортность P
(гПа)
Po
(гПа)
Тmin
(С)
Tmax
(С)
R
(мм)
R24
(мм)
S
(см)
12 13.05 З 3 20 км {дождь} 10/10 600 м
[Sc]
+18.9 +13.4 70 +20 +20 1017.0 1017.3
15 13.05 ЮЗ 2 20 км 10/10 600 м
[Sc]
+21.1 +13.8 63 +24 +24 комфорт 1017.4 1017.7 +21.1 2
18 13.05 ЮЗ 2 20 км 10/10 600 м
[Sc]
+17.3 +13.0 76 +18 +18 1018.5 1018.7
21 13.05 ЮЗ 2 20 км ясно +15.7 +11.8 78 +16 +16 1017.6 1017.8
00 14.05 ЮЗ 2 20 км ясно +13.6 +11.3 86 +13 +13 1017.6 1017.7
03 14.05 ЮЗ 2 20 км ясно +15.1 +11.8 81 +15 +16 1018.3 1018.5 +13.4
06 14.05 ЮЗ 3 20 км ясно +21.4 +13.8 62 +24 +34 комфорт 1018.2 1018.4
09 14.05 З 3 20 км 4/4 600 м
[Cu hum]
+25.3 +11.1 41 +27 +36 жарко 1017.1 1017.2
12 14.05 З 3 20 км 4/3 600 м
[Cu hum Ci]
+26.4 +10.5 37 +27 +33 жарко 1016.2 1016.4
15 14.05 ЮЗ 2 20 км 8/5 600 м
[Cu med, cong Ci]
+24.4 +11.5 44 +26 +26 жарко 1015.8 1016.0 +26.8
18 14.05 ЮЗ 1 20 км 8/0
[Ci fib]
+18.6 +12.3 67 +20 +20 1016.9 1017.1
21 14.05 ЮЗ 2 20 км 5/0
[Ci fib]
+17.5 +11.8 69 +18 +18 1016.7 1016.9
00 15.05 ЮЗ 2 20 км 9/0
[Cc]
+16.6 +12.1 75 +17 +17 1016.5 1016.7
03 15.05 ЮЗ 2 20 км 8/5 600 м
[Sc Ci]
+16.3 +12.3 77 +16 +17 1017.1 1017.3 +16.3
06 15.05 З 3 20 км ясно +24.4 +12.6 48 +26 +36 жарко 1016.7 1016.9
09 15.05 З 5
{11}
20 км 10/3 600 м
[Cu hum]
+27.7 +11.1 36 +29 +32 жарко 1015.5 1015.6
12 15.05 З 4
{12}
20 км 4/4 600 м
[Cu hum]
+29.1 +11.4 33 +30 +34 жарко 1014.5 1014.7
15 15.05 З 3
{12}
20 км ясно +27.3 +12.3 39 +29 +29 жарко 1014.1 1014.3 +29.1
18 15.05 ЮЗ 3 20 км ясно +21.6 +13.0 58 +24 +24 комфорт 1014.6 1014.8
21 15.05 ЮЗ 2 20 км 6/6 600 м
[Sc]
+18.5 +12.7 69 +20 +20 1014.2 1014.4
00 16.05 ЮЗ 3 20 км ясно +17.8 +12.8 73 +18 +18 1013.8 1014.0
03 16.05 З 2 20 км ясно +19.4 +13.4 68 +21 +23 комфорт 1014.2 1014.4 +17.1
06 16.05 З 4 20 км 4/0
[Ci fib]
+25.1 +15.7 56 +28 +36 жарко 1014.2 1014.4
09 16.05 З 4 20 км 8/8 600 м
[Cu hum]
+29.1 +14.8 42 +32 +34 душно 1013.5 1013.6
12 16.05 С 3 20 км 3/0
[Cc]
+30.2 +12.1 33 +31 +40 жарко 1013.2 1013.4
15 16.05 В 2 20 км ясно +24.5 +14.2 53 +27 +28 жарко 1014.0 1014.2 +30.6
18 16.05 В 2 20 км ясно +18.3 +15.0 81 +19 +19 1014.9 1015.1
21 16.05 ЮВ 2 20 км ясно +15.2 +13.6 90 +15 +15 1014.9 1015.1
00 17.05 В 2 20 км ясно +15.3 +14.1 93 +15 +15 1014.2 1014.5
03 17.05 В 1 20 км ясно +16.2 +14.5 90 +17 +19 1014.2 1014.3 +13.7
06 17.05 В 3 20 км ясно +25.6 +13.2 46 +28 +38 жарко 1013.9 1014.1
09 17.05 В 5
{10}
20 км ясно +27.9 +10.6 34 +28 +38 жарко 1013.4 1013.5
12 17.05 В 6
{11}
20 км ясно +28.1 +12.2 37 +29 +34 жарко 1012.3 1012.5
15 17.05 В 4
{11}
20 км ясно +24.2 +12.9 49 +26 +27 жарко 1011.9 1012.1 +28.9
18 17.05 В 2 20 км ясно +17.8 +15.1 84 +18 +18 1012.0 1012.2
21 17.05 СВ 3 20 км 3/0
[Ci fib]
+16.2 +14.0 87 +16 +16 1011.0 1011.2
00 18.05 СВ 3 20 км 8/0
[Cc]
+15.9 +13.3 85 +15 +15 1010.1 1010.3
03 18.05 В 2 20 км 5/0
[Cc]
+15.7 +13.5 87 +16 +17 1010.5 1010.7 +14.7
06 18.05 В 4 20 км ясно +24.2 +14.5 55 +27 +35 жарко 1010.0 1010.2
09 18.05 В 6-11
{12}
20 км ясно +26.4 +12.2 41 +28 +35 жарко 1009.9 1010.1
12 18.05 В 6-11
{12}
20 км 8/0
[Ci]
+25.4 +12.0 43 +27 +29 жарко 1009.2 1009.4
15 18.05 В 4
{11}
20 км ясно +22.2 +14.0 60 +25 +26 комфорт 1008.4 1008.6 +26.9
18 18.05 СВ 2 20 км ясно +17.5 +14.2 81 +18 +18 1009.3 1009.5
21 18.05 СВ 1 20 км ясно +15.4 +13.7 90 +16 +16 1008.0 1008.2
00 19.05 С 1 20 км ясно +14.7 +13.2 91 +15 +15 1007.4 1007.5
03 19.05 З 1 20 км ясно +16.4 +14.8 90 +17 +19 1008.0 1008.2 +14.4
06 19.05 С 1 20 км 10/0
[Cs]
+23.3 +15.3 61 +28 +39 душно 1008.5 1008.7
09 19.05 СВ 3 20 км 8/0
[Ci fib]
+27.5 +13.3 42 +29 +43 жарко 1008.1 1008.3
12 19.05 СВ 4 20 км 6/0
[Ci]
+26.9 +14.1 45 +29 +36 жарко 1008.7 1008.9
15 19.05 С 2 20 км 8/4 600 м
[Sc diur, vesp Ci sp]
+23.6 +12.2 49 +25 +26 комфорт 1010.3 1010.4 +27.9
18 19.05 ЮВ 1 20 км 9/0
[Cc]
+20.2 +14.4 69 +24 +24 комфорт 1011.6 1011.8
21 19.05 Ю 1 20 км 10/0
[Ac As]
+17.8 +14.1 79 +19 +19 1012.4 1012.6
00 20.05 СВ 1 20 км 10/0
[Ac As]
+16.7 +14.0 84 +18 +18 1012.0 1012.2
03 20.05 С 1 20 км 4/0
[Ac cast]
+18.7 +15.3 81 +21 +22 комфорт 1012.4 1012.6 +16.2
06 20.05 СВ 2 20 км 6/0
[Ci fib]
+25.2 +13.2 47 +27 +38 жарко 1013.7 1013.9
09 20.05 В 2 20 км 8/0
[Ci]
+27.4 +5.8 25 +26 +42 жарко 1014.3 1014.5

 

Местоположение метеостанции Бабаюрт (Дагестан, Россия): широта 43.60 долгота 46.78 высота над уровнем моря -2 м.

В архиве по умолчанию представлена погода в Бабаюрте за последнюю неделю. Архивные данные за месяц целиком и за предыдущие месяцы, начиная с января 2011 года, Вы можете получить, выбрав интересующий диапазон дат из раскрывающегося списка и нажав кнопку "Ввод!".


*Определитесь, кто Вы:
робот инопланетянин человек

Внимание! Время в таблицах - всемирное. Для получения местного времени необходимо прибавить поправку, которая равна 3 ч.

Смотрите также архив погоды в соседних городах и на ближайших метеорологических станциях:

Погода в Кизляре (Дагестан, Россия) (26 км)
Погода в Шелковской (Чечня, Россия) (34 км)
Погода в Хасавюрте (Дагестан, Россия) (42 км)
Погода в Гудермесе (Чечня, Россия) (60 км)
Погода в Махачкале (Дагестан, Россия) (86 км)
Погода в Кочубее (Дагестан, Россия) (91 км)
Погода в Буйнакске (Дагестан, Россия) (91 км)
Погода в Терекли-Мектебе (Дагестан, Россия) (93 км)
Погода в Грозном (Чечня, Россия) (94 км)
Погода на Острове Тюлений (Дагестан, Россия) (112 км)

Пояснения к столбцам:

Ветер - указаны скорость ветра в м/с - средняя за 10 мин, порывы в срок и между сроками (в фигурных скобках) и направление, откуда дует ветер: С - северный, СВ - северо-восточный, В - восточный, ЮВ - юго-восточный, Ю - южный, ЮЗ - юго-западный, З - западный, СЗ - северо-западный.
Видимость - горизонтальная дальность видимости в метрах или километрах. При видимости от 1 до 10 км при отсутствии осадков обычно наблюдается дымка, при ухудшении видимости до 1 км и менее - туман. В сухую погоду видимость может ухудшаться дымом, пылью или мглою.
Явления - указаны атмосферные явления, наблюдавшиеся в срок или в последний час перед сроком; фигурными скобками обозначены явления, наблюдавшиеся между сроками (за 1-3 часа до срока); квадратными скобками обозначены град или гололедные отложения с указанием их диаметра в мм.
Облачность - указаны через наклонную черту общая и нижняя облачность в баллах и высота нижней границы облаков в метрах; квадратными скобками обозначены формы облаков: Ci - перистые, Cs - перисто-слоистые, Cc - перисто-кучевые, Ac - высококучевые, As - высокослоистые, Sc - слоисто-кучевые, Ns - слоисто-дождевые, Cu - кучевые, Cb - кучево-дождевые. Подробнее классификацию облаков см. в Атласе облаков (PDF).
T - Температура воздуха - температура, измеренная на высоте 2 м над землей.
Td - Температура точки росы - температура, при понижении до которой содержащийся в воздухе водяной пар достигнет насыщения.
f - Относительная влажность воздуха - влажноcть воздуха, измеренная на высоте 2 м над землей.
Te - Эффективная температура - температура, которую ощущает одетый по сезону человек в тени. Характеристика душности погоды. При расчете учитывается влияние влажности воздуха и скорости ветра на теплоощущения человека.
Tes - Эффективная температура на солнце - температура, которую ощущает человек, с поправкой на солнечный нагрев. Характеристика знойности погоды. Зависит от высоты солнца над горизонтом, облачности и скорости ветра. Ночью, в пасмурную погоду, а также при ветре 12 м/с и более поправка равна нулю.
P - Атмосферное давление - приведенное к уровню моря атмосферное давление.
Po - Атмосферное давление - измеренное на уровне метеостанции атмосферное давление.
Tmin - Минимальная температура - минимум температуры воздуха на высоте 2 м над землей.
Tmax - Максимальная температура - максимум температуры воздуха на высоте 2 м над землей.
R - Количество осадков - Количество выпавших осадков за период времени, мм. При наведении курсора мыши на число - период времени, за который выпало указанное количество осадков.
R24 - Количество осадков - Количество выпавших осадков за 24 часа, мм.
S - Снежный покров - Высота снежного покрова, см. При наведении курсора мыши на число - состояние снежного покрова и степень покрытия местности в баллах.